DW3793 Weather Reports


Display with metric or nautical units.
time (UTC)temp
F
wind
direction
speed
MPH
gust
MPH
rain 1hr
in
rain 24hr
in
rain mn
in
humidity
%
barometer
mb
20260903110022 49 250 1.0 3.0 0.18 0.34 0.18 93 1012.1
20260903104519 50 170 0.0 3.0 0.11 0.27 0.11 93 1012.2
20260903103016 50 40 0.0 2.0 0.08 0.24 0.08 91 1011.9
20260903101544 52 131 0.0 3.0 0.03 0.19 0.03 93 1011.6
20260903100041 52 92 0.0 4.0 0.00 0.16 0.00 93 1011.2
20260903094541 52 140 0.0 4.0 0.00 0.16 0.00 93 1011.0
20260903093050 52 182 1.0 3.0 0.00 0.16 0.00 92 1011.0
20260903091533 52 217 0.0 4.0 0.00 0.16 0.00 91 1011.0
20260903090033 52 225 0.0 3.0 0.00 0.16 0.00 87 1010.8
20260903084532 52 263 0.0 3.0 0.00 0.16 0.00 88 1010.8
20260903083027 52 256 1.0 4.0 0.01 0.16 0.00 88 1010.8
20260903081534 52 265 1.0 6.0 0.02 0.16 0.00 90 1010.8
20260903080026 52 299 2.0 7.0 0.02 0.16 0.00 89 1010.8
20260903074518 52 223 0.0 5.0 0.03 0.16 0.16 90 1011.1
20260903073017 52 296 0.0 4.0 0.03 0.15 0.15 90 1011.2
20260903071520 52 269 0.0 2.0 0.03 0.14 0.14 92 1011.2
20260903070020 52 270 0.0 1.0 0.04 0.14 0.14 91 1011.2
20260903064514 52 325 0.0 2.0 0.05 0.13 0.13 89 1011.2
20260903063012 52 291 0.0 4.0 0.05 0.12 0.12 89 1011.3
20260903061511 52 262 0.0 2.0 0.05 0.11 0.11 91 1011.5
20260903060013 52 264 0.0 3.0 0.05 0.10 0.10 90 1011.5
20260903054517 52 294 0.0 3.0 0.04 0.08 0.08 91 1011.7
20260903053005 52 209 0.0 0.0 0.03 0.07 0.07 93 1011.6
20260903051504 53 209 0.0 1.0 0.03 0.06 0.06 92 1011.7
20260903050003 53 210 0.0 1.0 0.03 0.05 0.05 92 1011.7
20260903044502 53 167 0.0 0.0 0.02 0.04 0.04 91 1011.7
20260903043059 53 167 0.0 0.0 0.03 0.04 0.04 90 1011.7
20260903041558 53 159 0.0 0.0 0.03 0.03 0.03 89 1011.7
20260903040056 54 234 0.0 1.0 0.02 0.02 0.02 86 1011.5
20260903034558 54 148 0.0 2.0 0.02 0.02 0.02 85 1011.4
20260903033051 54 174 0.0 6.0 0.01 0.01 0.01 82 1011.3
20260903031550 56 126 1.0 4.0 0.00 0.00 0.00 79 1011.3
20260903030049 57 175 2.0 4.0 0.00 0.00 0.00 74 1011.1
20260903024547 59 254 0.0 7.0 0.00 0.00 0.00 66 1011.0
20260903023044 61 307 4.0 8.0 0.00 0.00 0.00 58 1010.8
20260903021544 62 338 3.0 12.0 0.00 0.00 0.00 53 1010.6
20260903020043 64 333 6.0 17.0 0.00 0.00 0.00 49 1010.5
20260903014558 65 317 5.0 15.0 0.00 0.00 0.00 44 1010.3
20260903013012 66 330 4.0 15.0 0.00 0.00 0.00 43 1010.1
20260903011514 67 38 4.0 13.0 0.00 0.00 0.00 42 1010.0
20260903010040 67 315 4.0 16.0 0.00 0.00 0.00 40 1009.8
20260903004539 68 35 3.0 13.0 0.00 0.00 0.00 38 1009.7
20260903003036 68 37 8.0 17.0 0.00 0.00 0.00 37 1009.7
20260903001535 69 20 7.0 25.0 0.00 0.00 0.00 37 1009.5
20260903000036 70 323 7.0 16.0 0.00 0.00 0.00 34 1009.1
20260902234536 70 326 10.0 23.0 0.00 0.00 0.00 34 1009.1
20260902233031 71 339 9.0 19.0 0.00 0.00 0.00 34 1008.9
20260902231529 71 328 4.0 21.0 0.00 0.00 0.00 32 1008.8
20260902230030 72 60 3.0 13.0 0.00 0.00 0.00 32 1008.6
20260902224528 72 336 6.0 17.0 0.00 0.00 0.00 32 1008.5
20260902223026 73 313 6.0 23.0 0.00 0.00 0.00 33 1008.3
20260902221525 73 333 6.0 17.0 0.00 0.00 0.00 32 1008.1
20260902220027 75 12 5.0 14.0 0.00 0.00 0.00 32 1008.1
20260902214528 75 5 5.0 16.0 0.00 0.00 0.00 33 1008.3
20260902213050 73 30 4.0 13.0 0.00 0.00 0.00 35 1008.6
20260902211557 72 325 3.0 13.0 0.00 0.00 0.00 37 1008.9
20260902210057 71 296 3.0 16.0 0.00 0.00 0.00 37 1009.0
20260902204549 72 313 6.0 16.0 0.00 0.00 0.00 35 1009.0
20260902203049 73 261 8.0 17.0 0.00 0.00 0.00 33 1008.8
20260902201549 73 319 12.0 21.0 0.00 0.00 0.00 32 1008.8
20260902200021 72 332 3.0 10.0 0.00 0.00 0.00 38 1008.8
20260902194514 72 271 3.0 13.0 0.00 0.00 0.00 38 1009.1
20260902193004 71 107 3.0 10.0 0.00 0.00 0.00 42 1009.4
20260902191503 70 26 2.0 8.0 0.00 0.00 0.00 42 1009.7
20260902190106 69 107 2.0 7.0 0.00 0.00 0.00 42 1009.7
20260902190003 69 80 1.0 6.0 0.00 0.00 0.00 43 1009.7
20260902184618 69 88 2.0 7.0 0.00 0.00 0.00 46 1010.0
20260902183046 68 98 1.0 4.0 0.00 0.00 0.00 47 1010.0
20260902180042 65 105 2.0 4.0 0.00 0.00 0.00 50 1010.3
20260902174536 64 167 0.0 7.0 0.00 0.00 0.00 52 1010.6
20260902173038 64 154 2.0 6.0 0.00 0.00 0.00 52 1010.7
20260902171531 63 210 0.0 5.0 0.00 0.00 0.00 53 1010.9
20260902170030 63 144 1.0 8.0 0.00 0.00 0.00 54 1011.0
20260902164533 62 132 1.0 7.0 0.00 0.00 0.00 55 1011.1
20260902163029 62 78 0.0 6.0 0.00 0.00 0.00 55 1011.1
20260902161526 62 345 0.0 2.0 0.00 0.00 0.00 57 1010.9
20260902160021 61 64 0.0 5.0 0.00 0.00 0.00 59 1010.9
20260902154519 60 355 1.0 4.0 0.00 0.00 0.00 59 1011.0
20260902153020 59 66 0.0 1.0 0.00 0.00 0.00 61 1010.9
20260902151507 58 293 0.0 1.0 0.00 0.00 0.00 63 1010.8
20260902150004 56 293 0.0 3.0 0.00 0.00 0.00 67 1010.9
20260902144503 56 248 0.0 1.0 0.00 0.00 0.00 66 1010.9
20260902143000 55 248 0.0 4.0 0.00 0.00 0.00 68 1011.0
20260902141555 55 248 0.0 3.0 0.00 0.00 0.00 69 1010.9
20260902140051 55 248 0.0 0.0 0.00 0.00 0.00 69 1010.8
20260902134603 56 248 0.0 2.0 0.00 0.00 0.00 68 1011.0
20260902133051 56 157 3.0 9.0 0.00 0.00 0.00 69 1010.9
20260902131549 56 23 5.0 14.0 0.00 0.00 0.00 68 1010.3
20260902130051 57 248 2.0 5.0 0.00 0.00 0.00 68 1009.8
20260902124543 57 296 2.0 8.0 0.00 0.00 0.00 65 1011.1
20260902123041 57 234 1.0 8.0 0.00 0.00 0.00 64 1011.4
20260902121535 57 49 1.0 10.0 0.00 0.00 0.00 64 1011.0
20260902120038 57 80 0.0 6.0 0.00 0.00 0.00 62 1010.4
20260902114534 56 14 0.0 2.0 0.00 0.00 0.00 64 1010.2
20260902113031 56 355 2.0 5.0 0.00 0.00 0.00 65 1010.3
20260902111528 56 263 0.0 3.0 0.00 0.00 0.00 66 1010.7